SPACEWAY 2

Last updated on Sun Oct 06 2024 00:02:38 GMT+0000 (Coordinated Universal Time)

1 28903U 05046B 24279.60928095 .00000114 00000+0 00000+0 0 9994 2 28903 3.8664 78.7276 0000370 58.9300 317.7511 1.00270237 45133
UTC large
Height (km)
Speed (km/s)
/
Latitude / Longitude
Inclination (degrees)
Orbital Period (minutes)
Azimuth
Elevation
Range (km)
Doppler Factor

Next 0 passes for location: London (51.5072 / 0.1276)

Sorry there are no passes over London.